Englewood, Florida, United States (34223)
Lat: 26.96N, Lon: 82.35W
Wx Zone: FLZ060
Local Info
Past Weather Observations for Thursday, January 29, 2015

NOTE: This archive is for the closest National Weather Service station to Englewood. Information may differ from the station used for current weather conditions.

Click here for Long-term Archive

Time Weather Temperature Dewpoint Humidity Pressure Winds Precip Visibility
23:53
Clear
54°F / 12°C 46°F / 8°C 77% 30.24 in
(1024 mb)
Calm - 10SM
22:53
Clear
52°F / 11°C 46°F / 8°C 82% 30.27 in
(1025 mb)
NE 4.6 mph
(NE 7 kph)
- 10SM
21:53
Clear
55°F / 13°C 48°F / 9°C 77% 30.27 in
(1025 mb)
N 4.6 mph
(N 7 kph)
- 10SM
20:53
Clear
57°F / 14°C 48°F / 9°C 72% 30.27 in
(1025 mb)
NW 5.8 mph
(NW 9 kph)
- 10SM
19:53
Clear
55°F / 13°C 48°F / 9°C 77% 30.24 in
(1024 mb)
E 4.6 mph
(E 7 kph)
- 10SM
18:53
Clear
61°F / 16°C 48°F / 9°C 63% 30.24 in
(1024 mb)
E 5.8 mph
(E 9 kph)
- 10SM
17:53
Clear
66°F / 19°C 48°F / 9°C 52% 30.24 in
(1024 mb)
E 5.8 mph
(E 9 kph)
- 10SM
16:53
Partly Cloudy
72°F / 22°C 48°F / 9°C 44% 30.21 in
(1023 mb)
ESE 10.4 mph
(ESE 17 kph)
- 8SM
15:53
Clear
72°F / 22°C 46°F / 8°C 41% 30.21 in
(1023 mb)
Variable 4.6 mph
(Variable 7 kph)
- 10SM
14:53
Clear
73°F / 23°C 45°F / 7°C 36% 30.21 in
(1023 mb)
ENE 9.2 mph
(ENE 15 kph)
- 10SM
13:53
Clear
72°F / 22°C 45°F / 7°C 38% 30.24 in
(1024 mb)
E 11.5 mph
(E 19 kph)
- 10SM
12:53
Clear
70°F / 21°C 43°F / 6°C 38% 30.24 in
(1024 mb)
ESE 8.1 mph
(ESE 13 kph)
- 10SM
11:53
Clear
70°F / 21°C 48°F / 9°C 46% 30.3 in
(1026 mb)
ESE 11.5 mph
(ESE 19 kph)
- 10SM
10:53
Clear
66°F / 19°C 48°F / 9°C 52% 30.33 in
(1027 mb)
E 10.4 mph
(E 17 kph)
- 10SM
09:53
Clear
61°F / 16°C 46°F / 8°C 59% 30.33 in
(1027 mb)
NE 11.5 mph
(NE 19 kph)
- 10SM
08:53
Clear
50°F / 10°C 45°F / 7°C 82% 30.33 in
(1027 mb)
NE 9.2 mph
(NE 15 kph)
- 10SM
07:53
Clear
45°F / 7°C 41°F / 5°C 87% 30.3 in
(1026 mb)
NE 6.9 mph
(NE 11 kph)
- 10SM
06:53
Clear
43°F / 6°C 39°F / 4°C 87% 30.27 in
(1025 mb)
NE 8.1 mph
(NE 13 kph)
- 10SM
05:53
Clear
43°F / 6°C 39°F / 4°C 87% 30.27 in
(1025 mb)
NE 6.9 mph
(NE 11 kph)
- 10SM
04:53
Clear
43°F / 6°C 39°F / 4°C 87% 30.24 in
(1024 mb)
NE 9.2 mph
(NE 15 kph)
- 10SM
03:53
Clear
45°F / 7°C 41°F / 5°C 87% 30.27 in
(1025 mb)
NNE 8.1 mph
(NNE 13 kph)
- 10SM
02:53
Clear
45°F / 7°C 41°F / 5°C 87% 30.27 in
(1025 mb)
NNE 9.2 mph
(NNE 15 kph)
- 10SM
01:53
Clear
41°F / 5°C 39°F / 4°C 93% 30.27 in
(1025 mb)
NNE 6.9 mph
(NNE 11 kph)
- 10SM
00:53
Clear
43°F / 6°C 39°F / 4°C 87% 30.27 in
(1025 mb)
NE 4.6 mph
(NE 7 kph)
- 10SM
Time Weather Temperature Dewpoint Humidity Pressure Winds Precip Visibility


Weather for websites

WeatherForYou.com, LLC is not responsible for any damages or problems caused by this service. Current weather conditions are obtained from the closest station including government and personal stations which may have varying degrees of accuracy. Weather forecasts are derived from the NOAA NDFD. Like all things, this site belongs to Jesus Christ... He just trusts me to maintain it. If you have any questions or comments email webmaster@weatherforyou.com

Copyright © 2015, WeatherForYou.com LLC. All rights reserved.